FW6934 Weather Reports


time (UTC)temp
C
wind
direction
speed
KPH
gust
KPH
rain 1hr
cm
rain 24hr
cm
rain mn
cm
humidity
%
barometer
mb
20260506140002 12 292 0.0 0.0 0.00 0.00 0.00 87 1007.6
20260506135551 12 292 0.0 0.0 0.00 0.00 0.00 86 1007.6
20260506135038 12 292 0.0 0.0 0.00 0.00 0.00 86 1007.5
20260506134511 12 292 0.0 0.0 0.00 0.00 0.00 86 1007.5
20260506134059 12 292 0.0 0.0 0.00 0.00 0.00 86 1007.5
20260506133548 12 292 0.0 0.0 0.00 0.00 0.00 86 1007.5
20260506133012 12 292 0.0 0.0 0.00 0.00 0.00 85 1007.5
20260506132557 12 292 0.0 0.0 0.00 0.00 0.00 85 1007.4
20260506132039 12 292 0.0 0.0 0.00 0.00 0.00 85 1007.4
20260506131506 12 292 0.0 0.0 0.00 0.00 0.00 85 1007.4
20260506131059 12 292 0.0 0.0 0.00 0.00 0.00 85 1007.3
20260506130544 13 292 0.0 0.0 0.00 0.00 0.00 85 1007.2
20260506130009 13 292 0.0 0.0 0.00 0.00 0.00 85 1007.1
20260506125554 13 292 0.0 0.0 0.00 0.00 0.00 85 1007.0
20260506125040 13 292 0.0 0.0 0.00 0.00 0.00 85 1007.1
20260506124501 13 292 0.0 0.0 0.00 0.00 0.00 85 1007.1
20260506124051 13 292 0.0 0.0 0.00 0.00 0.00 85 1007.0
20260506123539 13 292 0.0 0.0 0.00 0.00 0.00 85 1006.9
20260506123100 13 292 0.0 0.0 0.00 0.00 0.00 85 1006.9
20260506122547 13 292 0.0 1.6 0.00 0.00 0.00 85 1006.9
20260506122036 13 292 0.0 1.6 0.00 0.00 0.00 85 1006.9
20260506121600 13 292 0.0 0.0 0.00 0.00 0.00 85 1007.0
20260506121049 13 292 0.0 0.0 0.00 0.00 0.00 85 1007.1
20260506120537 13 292 0.0 1.6 0.00 0.00 0.00 85 1007.1
20260506120058 13 292 0.0 0.0 0.00 0.00 0.00 85 1007.1
20260506115546 13 292 0.0 1.6 0.00 0.00 0.00 85 1007.1
20260506115035 13 292 0.0 4.8 0.00 0.00 0.00 85 1007.0
20260506114558 13 292 0.0 4.8 0.00 0.00 0.00 85 1006.9
20260506114046 13 292 0.0 4.8 0.00 0.00 0.00 85 1006.9
20260506113535 13 292 0.0 4.8 0.00 0.00 0.00 85 1006.8
20260506113058 13 14 0.0 6.4 0.00 0.00 0.00 85 1006.9
20260506112547 13 14 1.6 6.4 0.00 0.00 0.00 85 1006.8
20260506112034 13 348 0.0 0.0 0.00 0.00 0.00 85 1006.7
20260506111557 13 348 0.0 0.0 0.00 0.00 0.00 85 1006.7
20260506111046 13 348 0.0 0.0 0.00 0.00 0.00 85 1006.7
20260506110538 13 348 0.0 0.0 0.00 0.00 0.00 85 1006.5
20260506110008 13 348 0.0 0.0 0.00 0.00 0.00 85 1006.5
20260506105554 13 348 0.0 0.0 0.00 0.00 0.00 85 1006.4
20260506105041 13 348 0.0 0.0 0.00 0.00 0.00 85 1006.2
20260506104502 13 348 0.0 0.0 0.00 0.00 0.00 85 1006.2
20260506104052 13 348 0.0 0.0 0.00 0.00 0.00 85 1006.1
20260506103541 13 348 0.0 0.0 0.00 0.00 0.00 85 1006.0
20260506103003 13 348 0.0 0.0 0.00 0.00 0.00 85 1005.9
20260506102552 13 348 0.0 0.0 0.00 0.00 0.00 85 1005.9
20260506102040 13 348 0.0 0.0 0.00 0.00 0.00 85 1005.8
20260506101603 13 348 0.0 0.0 0.00 0.00 0.00 85 1005.9
20260506101051 13 348 0.0 0.0 0.00 0.00 0.00 85 1005.7
20260506100540 13 348 0.0 0.0 0.00 0.00 0.00 86 1005.7
20260506100100 13 348 0.0 0.0 0.00 0.00 0.00 86 1005.7
20260506095549 13 348 0.0 0.0 0.00 0.00 0.00 86 1005.8
20260506095037 13 348 0.0 0.0 0.00 0.00 0.00 85 1005.7
20260506094607 13 348 0.0 0.0 0.00 0.00 0.00 85 1005.7
20260506094046 13 348 0.0 0.0 0.00 0.00 0.00 85 1005.7
20260506093534 13 348 0.0 0.0 0.00 0.00 0.00 85 1005.6
20260506093058 13 348 0.0 0.0 0.00 0.00 0.00 85 1005.5
20260506092546 13 348 0.0 0.0 0.00 0.00 0.00 85 1005.6
20260506092035 13 348 0.0 0.0 0.00 0.00 0.00 85 1005.6
20260506091606 13 348 0.0 0.0 0.00 0.00 0.00 85 1005.5
20260506091045 13 348 0.0 0.0 0.00 0.00 0.00 85 1005.5
20260506090533 13 348 0.0 0.0 0.00 0.00 0.00 85 1005.5
20260506090058 13 348 0.0 0.0 0.00 0.00 0.00 85 1005.5
20260506085542 13 348 0.0 0.0 0.00 0.00 0.00 85 1005.5
20260506085031 13 348 0.0 0.0 0.00 0.00 0.00 85 1005.4
20260506084614 13 348 0.0 0.0 0.00 0.00 0.00 85 1005.4
20260506084043 13 348 0.0 0.0 0.00 0.00 0.00 85 1005.4
20260506083532 13 348 0.0 0.0 0.00 0.00 0.00 85 1005.4
20260506083055 13 348 0.0 0.0 0.00 0.00 0.00 85 1005.4
20260506082542 13 348 0.0 0.0 0.00 0.00 0.00 85 1005.4
20260506082031 13 348 0.0 0.0 0.00 0.00 0.00 85 1005.4
20260506081556 13 348 0.0 0.0 0.00 0.00 0.00 85 1005.4
20260506081042 13 348 0.0 0.0 0.00 0.00 0.00 85 1005.4
20260506080531 13 348 0.0 0.0 0.00 0.00 0.00 85 1005.4
20260506073059 14 348 0.0 0.0 0.00 0.00 0.00 85 1005.1
20260506072540 14 348 0.0 0.0 0.00 0.00 0.00 85 1005.1
20260506072028 14 348 0.0 0.0 0.00 0.00 0.00 85 1005.0
20260506071554 14 348 0.0 0.0 0.00 0.00 0.00 85 1004.9
20260506071040 14 348 0.0 0.0 0.00 0.00 0.00 85 1004.9
20260506070528 14 348 0.0 0.0 0.00 0.00 0.00 85 1004.9
20260506062516 13 348 0.0 0.0 0.00 0.00 0.00 85 1004.8
20260506062058 13 348 0.0 0.0 0.00 0.00 0.00 85 1004.7
20260506061538 13 348 0.0 0.0 0.00 0.00 0.00 85 1004.7
20260506061100 13 348 0.0 0.0 0.00 0.00 0.00 85 1004.7
20260506060549 13 348 0.0 0.0 0.00 0.00 0.00 85 1004.6
20260506051008 13 348 0.0 0.0 0.00 0.00 0.00 84 1004.5
20260506050556 13 348 0.0 0.0 0.00 0.00 0.00 84 1004.4
20260506045056 13 348 0.0 0.0 0.00 0.00 0.00 84 1004.4
20260506044522 13 348 0.0 0.0 0.00 0.00 0.00 83 1004.3
20260506044007 13 348 0.0 0.0 0.00 0.00 0.00 83 1004.3
20260506043556 13 348 0.0 0.0 0.00 0.00 0.00 83 1004.3
20260506043036 13 348 0.0 0.0 0.00 0.00 0.00 83 1004.2
20260506042511 13 348 0.0 0.0 0.00 0.00 0.00 82 1004.2
20260506042102 13 348 0.0 0.0 0.00 0.00 0.00 82 1004.1
20260506041526 13 348 0.0 0.0 0.00 0.00 0.00 81 1004.1
20260506041011 13 348 0.0 0.0 0.00 0.00 0.00 81 1004.0
20260506040552 14 348 0.0 0.0 0.00 0.00 0.00 81 1004.0
20260506040107 14 348 0.0 0.0 0.00 0.00 0.00 81 1004.0
20260506035540 14 348 0.0 0.0 0.00 0.00 0.00 80 1003.9
20260506035026 14 348 0.0 0.0 0.00 0.00 0.00 80 1003.9
20260506034549 14 348 0.0 0.0 0.00 0.00 0.00 80 1003.7
20260506034027 15 348 0.0 0.0 0.00 0.00 0.00 79 1003.5
20260506033511 15 348 0.0 0.0 0.00 0.00 0.00 79 1003.5
20260506033038 15 348 0.0 0.0 0.00 0.00 0.00 79 1003.5
20260506032521 15 348 0.0 0.0 0.00 0.00 0.00 79 1003.6
20260506032009 15 348 0.0 0.0 0.00 0.00 0.00 78 1003.5
20260506031548 15 348 0.0 0.0 0.00 0.00 0.00 78 1003.5
20260506031028 15 348 0.0 0.0 0.00 0.00 0.00 78 1003.5
20260506030517 15 348 0.0 0.0 0.00 0.00 0.00 77 1003.4
20260506030035 15 348 0.0 0.0 0.00 0.00 0.00 78 1003.4
20260506025523 16 348 0.0 0.0 0.00 0.00 0.00 76 1003.3
20260506025012 16 348 0.0 0.0 0.00 0.00 0.00 76 1003.2
20260506024541 16 348 0.0 0.0 0.00 0.00 0.00 76 1003.2
20260506024015 16 348 0.0 0.0 0.00 0.00 0.00 75 1003.1
20260506023502 16 348 0.0 1.6 0.00 0.00 0.00 74 1003.1
20260506023022 16 348 0.0 1.6 0.00 0.00 0.00 74 1003.2
20260506022513 16 350 0.0 1.6 0.00 0.00 0.00 74 1003.0
20260506022058 16 350 0.0 1.6 0.00 0.00 0.00 73 1003.0
20260506021529 17 350 0.0 1.6 0.00 0.00 0.00 72 1003.1
20260506021019 17 355 0.0 3.2 0.00 0.00 0.00 72 1003.2
20260506020502 17 346 0.0 3.2 0.00 0.00 0.00 72 1003.2
20260506020023 17 355 0.0 4.8 0.00 0.00 0.00 71 1003.2
20260506015514 17 24 1.6 4.8 0.00 0.00 0.00 70 1003.2
20260506015103 17 34 0.0 3.2 0.00 0.00 0.00 70 1003.1
20260506014518 17 355 0.0 0.0 0.00 0.00 0.00 69 1003.1
20260506014004 18 355 0.0 4.8 0.00 0.00 0.00 69 1003.1
20260506013555 18 355 1.6 6.4 0.00 0.00 0.00 69 1003.1
20260506013026 18 34 3.2 6.4 0.00 0.00 0.00 69 1003.1
20260506012514 18 70 1.6 6.4 0.00 0.00 0.00 68 1003.1
20260506012002 18 360 3.2 8.0 0.00 0.00 0.00 69 1003.1
20260506011530 18 44 3.2 8.0 0.00 0.00 0.00 69 1003.1
20260506011015 18 30 4.8 8.0 0.00 0.00 0.00 69 1003.2
20260506010502 18 342 3.2 4.8 0.00 0.00 0.00 69 1003.2
20260506010024 17 301 1.6 8.0 0.00 0.00 0.00 68 1003.2
20260506005508 17 17 1.6 9.7 0.00 0.00 0.00 69 1003.2
20260506005054 17 346 3.2 8.0 0.00 0.00 0.00 72 1003.1
20260506004515 18 59 4.8 9.7 0.00 0.00 0.00 68 1003.1
20260506004004 18 44 3.2 9.7 0.00 0.00 0.00 69 1003.2
20260506003557 18 10 0.0 4.8 0.00 0.00 0.00 68 1003.1
20260506003015 17 34 0.0 1.6 0.00 0.00 0.00 69 1003.1
20260506002503 17 5 0.0 0.0 0.00 0.00 0.00 70 1003.1
20260506002052 17 5 0.0 0.0 0.00 0.00 0.00 72 1003.2
20260506001509 17 317 0.0 0.0 0.00 0.00 0.00 70 1003.2
20260506001100 18 42 0.0 1.6 0.00 0.00 0.00 69 1003.3
20260506000547 18 44 0.0 6.4 0.00 0.00 0.00 70 1003.4
20260506000014 18 30 3.2 6.4 0.00 0.00 0.00 69 1003.3
20260505235503 18 29 1.6 4.8 0.00 0.00 0.00 70 1003.4
20260505235053 18 63 1.6 6.4 0.00 0.00 0.00 69 1003.4
20260505234517 18 296 1.6 6.4 0.00 0.00 0.00 70 1003.4
20260505234056 18 294 1.6 6.4 0.00 0.00 0.00 69 1003.5
20260505233543 17 5 0.0 4.8 0.00 0.00 0.00 69 1003.5
20260505233101 17 355 0.0 6.4 0.00 0.00 0.00 69 1003.6
20260505232548 17 44 1.6 8.0 0.00 0.00 0.00 69 1003.7
20260505232041 17 279 1.6 8.0 0.00 0.00 0.00 70 1003.6
20260505231608 17 360 0.0 9.7 0.00 0.00 0.00 70 1003.7
20260505231047 17 334 4.8 9.7 0.00 0.00 0.00 72 1003.6
20260505230535 17 46 4.8 9.7 0.00 0.00 0.00 72 1003.7
20260505230004 17 307 1.6 8.0 0.00 0.00 0.00 71 1003.7
20260505225554 17 319 3.2 9.7 0.00 0.00 0.00 71 1003.8
20260505225043 17 9 3.2 9.7 0.00 0.00 0.00 71 1003.8
20260505224503 17 296 4.8 8.0 0.00 0.00 0.00 72 1003.8
20260505224054 17 77 1.6 9.7 0.00 0.00 0.00 73 1003.8
20260505223542 17 45 4.8 9.7 0.00 0.00 0.00 72 1003.9
20260505223011 17 74 3.2 6.4 0.00 0.00 0.00 71 1003.8
20260505222605 17 198 1.6 8.0 0.00 0.00 0.00 71 1003.9
20260505222051 17 256 3.2 11.3 0.00 0.00 0.00 72 1003.9
20260505221510 17 286 3.2 8.0 0.00 0.00 0.00 71 1003.9
20260505221059 16 82 1.6 6.4 0.00 0.00 0.00 72 1004.0
20260505220548 16 49 1.6 6.4 0.00 0.00 0.00 71 1004.1
20260505220016 16 21 1.6 6.4 0.00 0.00 0.00 70 1004.1
20260505215503 16 161 3.2 4.8 0.00 0.00 0.00 74 1004.0
20260505215053 16 313 0.0 3.2 0.00 0.00 0.00 72 1004.0
20260505214523 16 313 0.0 4.8 0.00 0.00 0.00 72 1004.2
20260505214002 16 313 3.2 8.0 0.00 0.00 0.00 73 1004.2
20260505213554 16 292 0.0 8.0 0.00 0.00 0.00 73 1004.2
20260505213018 16 299 4.8 9.7 0.00 0.00 0.00 74 1004.1
20260505212503 16 5 1.6 4.8 0.00 0.00 0.00 74 1004.2
20260505212053 16 19 1.6 8.0 0.00 0.00 0.00 74 1004.1
20260505211513 16 104 3.2 9.7 0.00 0.00 0.00 75 1004.2
20260505211002 16 31 3.2 6.4 0.00 0.00 0.00 74 1004.2
20260505210551 16 39 3.2 9.7 0.00 0.00 0.00 73 1004.2
20260505210010 16 41 3.2 9.7 0.00 0.00 0.00 74 1004.2
20260505205601 16 5 1.6 9.7 0.00 0.00 0.00 72 1004.3
20260505205050 16 355 4.8 9.7 0.00 0.00 0.00 73 1004.2
20260505204517 16 328 3.2 9.7 0.00 0.00 0.00 74 1004.3
20260505204002 16 328 1.6 4.8 0.00 0.00 0.00 74 1004.3
20260505203551 16 325 1.6 4.8 0.00 0.00 0.00 73 1004.3
20260505203012 16 338 3.2 6.4 0.00 0.00 0.00 72 1004.3
20260505202604 16 24 3.2 6.4 0.00 0.00 0.00 73 1004.4
20260505202050 16 32 1.6 4.8 0.00 0.00 0.00 73 1004.4
20260505201512 16 113 1.6 4.8 0.00 0.00 0.00 73 1004.5
20260505201100 16 185 1.6 4.8 0.00 0.00 0.00 74 1004.5
20260505200547 15 178 0.0 8.0 0.00 0.00 0.00 73 1004.6
20260505200004 15 229 4.8 9.7 0.00 0.00 0.00 73 1004.4
20260505195557 15 321 3.2 8.0 0.00 0.00 0.00 74 1004.5
20260505195043 15 296 1.6 8.0 0.00 0.00 0.00 73 1004.5
20260505194505 15 279 1.6 12.9 0.00 0.00 0.00 74 1004.5
20260505194056 15 226 1.6 8.0 0.00 0.00 0.00 74 1004.5
20260505193542 15 107 1.6 6.4 0.00 0.00 0.00 73 1004.5
20260505193002 15 169 0.0 3.2 0.00 0.00 0.00 74 1004.4
20260505192552 15 169 1.6 11.3 0.00 0.00 0.00 75 1004.5
20260505192041 15 168 4.8 11.3 0.00 0.00 0.00 74 1004.5
20260505191501 15 273 1.6 8.0 0.00 0.00 0.00 74 1004.5
20260505191052 15 269 3.2 6.4 0.00 0.00 0.00 73 1004.5
20260505190539 15 306 1.6 6.4 0.00 0.00 0.00 73 1004.5
20260505190100 15 309 1.6 9.7 0.00 0.00 0.00 73 1004.5
20260505185549 15 302 4.8 9.7 0.00 0.00 0.00 73 1004.4
20260505185037 15 219 1.6 8.0 0.00 0.00 0.00 74 1004.5
20260505184600 15 163 0.0 8.0 0.00 0.00 0.00 74 1004.5
20260505184049 15 174 1.6 4.8 0.00 0.00 0.00 76 1004.4
20260505183539 15 289 0.0 4.8 0.00 0.00 0.00 75 1004.4
20260505183107 15 289 0.0 4.8 0.00 0.00 0.00 74 1004.4
20260505182549 15 326 0.0 3.2 0.00 0.00 0.00 75 1004.4
20260505182040 15 221 0.0 8.0 0.00 0.00 0.00 75 1004.4
20260505181503 15 307 4.8 8.0 0.00 0.00 0.00 75 1004.3
20260505181053 15 236 0.0 6.4 0.00 0.00 0.00 74 1004.3
20260505180541 15 196 0.0 8.0 0.00 0.00 0.00 75 1004.3
20260505180105 15 201 1.6 8.0 0.00 0.00 0.00 76 1004.3
20260505175543 15 323 3.2 8.0 0.00 0.00 0.00 75 1004.2
20260505175032 15 273 3.2 6.4 0.00 0.00 0.00 77 1004.3
20260505174557 14 161 1.6 4.8 0.00 0.00 0.00 76 1004.2
20260505174035 14 178 0.0 4.8 0.00 0.00 0.00 78 1004.3
20260505173509 14 269 1.6 3.2 0.00 0.00 0.00 78 1004.2
20260505173014 13 136 0.0 3.2 0.00 0.00 0.00 79 1004.2
20260505172559 13 153 0.0 6.4 0.00 0.00 0.00 80 1004.3
20260505172050 13 169 1.6 8.0 0.00 0.00 0.00 80 1004.2
20260505171509 13 19 1.6 6.4 0.00 0.00 0.00 80 1004.1
20260505171059 13 242 3.2 8.0 0.00 0.00 0.00 81 1004.2
20260505170546 13 306 1.6 8.0 0.00 0.00 0.00 81 1004.1
20260505170101 13 276 1.6 8.0 0.00 0.00 0.00 81 1004.0
20260505165542 13 244 3.2 8.0 0.00 0.00 0.00 82 1004.0
20260505165030 12 286 0.0 6.4 0.00 0.00 0.00 82 1004.1
20260505164501 12 291 1.6 6.4 0.00 0.00 0.00 83 1004.0
20260505164051 12 295 1.6 8.0 0.00 0.00 0.00 83 1004.0
20260505163537 12 236 3.2 8.0 0.00 0.00 0.00 84 1004.0
20260505163015 12 334 3.2 12.9 0.00 0.00 0.00 84 1003.9
20260505162557 12 191 1.6 14.5 0.00 0.00 0.00 84 1003.9
20260505162045 12 257 3.2 14.5 0.00 0.00 0.00 85 1003.9
20260505161505 12 355 0.0 9.7 0.00 0.00 0.00 86 1003.9
20260505161041 12 310 3.2 12.9 0.00 0.00 0.00 86 1003.9
20260505160516 11 288 4.8 12.9 0.00 0.00 0.00 86 1003.9
20260505153010 11 154 0.0 3.2 0.00 0.00 0.00 89 1003.8
20260505152559 11 159 0.0 3.2 0.00 0.00 0.00 89 1003.8
20260505152047 11 171 0.0 0.0 0.00 0.00 0.00 89 1003.7
20260505151518 11 174 0.0 0.0 0.00 0.00 0.00 89 1003.8
20260505151007 11 174 0.0 0.0 0.00 0.00 0.00 89 1003.7
20260505150556 11 174 0.0 0.0 0.00 0.00 0.00 89 1003.7
20260505140548 10 175 0.0 0.0 0.00 0.00 0.00 89 1003.3